Location: ???????
(54.9996°N, 37.9529°E)
Time: 14:54:23
(UTC+00:00)

CZ-2C R/B - Pass Details

Date: 14 April 2024
Orbit: 703 x 904 km, 98.2° (Epoch: 18 May)

Event Time Altitude Azimuth Distance (km) Brightness Sun altitude
Rises 01:28:02 0° 10° (N) 3,179 6.8 -8.5°
Reaches altitude 10° 01:30:32 10° 359° (N) 2,278 5.9 -8.2°
Maximum altitude 01:34:45 28° 301° (WNW) 1,421 4.2 -7.7°
Drops below altitude 10° 01:39:07 10° 244° (WSW) 2,370 4.8 -7.1°
Enters shadow 01:39:28 - 242° (WSW) 2,489 4.9 -7.1°
